When you browse on this site, cookies collect data to enhance your experience and personalize the content and advertising you see.
Visit our Privacy Policy to learn more. By continuing to use the site, you agree to this use of cookies and data.
  • In Hungary
  • List of Countries
  • For 7 days
  • Water Temperature
  • Satellite Maps
  • Weather Map
  • News
  • Weather Widgets
  • user-avatar
    Login

    Hourly Weather Roquetas de Mar

    Today, 19 November, Monday

    Time Temperature Precipitation Wind Pressure Humidity
    00:00 +16°C° 0 mm 3 mps 751 mmHg 85%
    01:00 +16°C° 0.1 mm 3 mps 751 mmHg 84%
    02:00 +15°C° 0.1 mm 4 mps 750 mmHg 83%
    03:00 +14°C° 0.1 mm 4 mps 750 mmHg 83%
    04:00 +14°C° 0.3 mm 4 mps 750 mmHg 83%
    05:00 +14°C° 0.3 mm 5 mps 750 mmHg 83%
    06:00 +14°C° 0.3 mm 5 mps 750 mmHg 84%
    07:00 +15°C° 0.3 mm 6 mps 751 mmHg 80%
    08:00 +15°C° 0.3 mm 6 mps 751 mmHg 76%
    09:00 +16°C° 0.3 mm 6 mps 751 mmHg 73%
    10:00 +17°C° 0.1 mm 7 mps 751 mmHg 68%
    11:00 +17°C° 0.1 mm 7 mps 751 mmHg 63%
    12:00 +18°C° 0.1 mm 8 mps 751 mmHg 59%
    13:00 +18°C° 0.1 mm 8 mps 751 mmHg 58%
    14:00 +18°C° 0.1 mm 8 mps 751 mmHg 57%
    15:00 +18°C° 0.1 mm 8 mps 751 mmHg 57%
    16:00 +18°C° 0 mm 7 mps 751 mmHg 61%
    17:00 +17°C° 0 mm 7 mps 751 mmHg 65%
    18:00 +16°C° 0 mm 7 mps 752 mmHg 69%
    19:00 +16°C° 0.1 mm 7 mps 752 mmHg 70%
    20:00 +16°C° 0.1 mm 7 mps 753 mmHg 71%
    21:00 +16°C° 0.1 mm 7 mps 753 mmHg 72%
    22:00 +16°C° 0.1 mm 7 mps 753 mmHg 72%
    23:00 +15°C° 0.1 mm 7 mps 753 mmHg 73%

    Tomorrow, 20 November, Tuesday

    Time Temperature Precipitation Wind Pressure Humidity
    00:00 +15°C° 0.1 mm 7 mps 754 mmHg 73%
    01:00 +15°C° 0 mm 7 mps 753 mmHg 73%
    02:00 +14°C° 0 mm 7 mps 753 mmHg 74%
    03:00 +14°C° 0 mm 7 mps 753 mmHg 74%
    04:00 +14°C° 0 mm 6 mps 753 mmHg 73%
    05:00 +13°C° 0 mm 6 mps 753 mmHg 71%
    06:00 +13°C° 0 mm 6 mps 753 mmHg 69%
    07:00 +14°C° 0.3 mm 6 mps 754 mmHg 71%
    08:00 +14°C° 0.3 mm 6 mps 754 mmHg 73%
    09:00 +15°C° 0.3 mm 6 mps 754 mmHg 75%
    10:00 +16°C° 0.3 mm 6 mps 754 mmHg 75%
    11:00 +16°C° 0.3 mm 7 mps 754 mmHg 76%
    12:00 +16°C° 0.3 mm 7 mps 754 mmHg 77%
    13:00 +17°C° 0.1 mm 8 mps 754 mmHg 74%
    14:00 +17°C° 0.1 mm 9 mps 754 mmHg 71%
    15:00 +18°C° 0.1 mm 10 mps 754 mmHg 69%
    16:00 +17°C° 0 mm 10 mps 755 mmHg 72%
    17:00 +16°C° 0 mm 10 mps 755 mmHg 74%
    18:00 +14°C° 0 mm 10 mps 756 mmHg 77%
    19:00 +15°C° 0 mm 9 mps 757 mmHg 76%
    20:00 +13°C° 0 mm 8 mps 757 mmHg 76%
    21:00 +13°C° 0 mm 8 mps 758 mmHg 75%
    22:00 +13°C° 0 mm 8 mps 758 mmHg 76%
    23:00 +12°C° 0 mm 7 mps 759 mmHg 76%

    Day after tomorrow, 21 November, Wednesday

    Time Temperature Precipitation Wind Pressure Humidity
    00:00 +12°C° 0 mm 7 mps 759 mmHg 76%
    01:00 +12°C° 0 mm 7 mps 759 mmHg 76%
    02:00 +13°C° 0 mm 6 mps 759 mmHg 77%
    03:00 +13°C° 0 mm 6 mps 759 mmHg 77%
    04:00 +13°C° 0 mm 6 mps 759 mmHg 77%
    05:00 +13°C° 0 mm 5 mps 759 mmHg 76%
    06:00 +13°C° 0 mm 5 mps 760 mmHg 76%
    07:00 +14°C° 0.1 mm 5 mps 760 mmHg 74%
    08:00 +15°C° 0.1 mm 4 mps 760 mmHg 71%
    09:00 +17°C° 0.1 mm 4 mps 761 mmHg 69%
    10:00 +16°C° 0.5 mm 5 mps 761 mmHg 69%
    11:00 +16°C° 0.5 mm 5 mps 761 mmHg 70%
    12:00 +17°C° 0.5 mm 5 mps 761 mmHg 71%
    13:00 +17°C° 0.4 mm 5 mps 761 mmHg 71%
    14:00 +17°C° 0.4 mm 5 mps 761 mmHg 71%
    15:00 +17°C° 0.4 mm 5 mps 760 mmHg 70%
    16:00 +17°C° 0.1 mm 4 mps 761 mmHg 73%
    17:00 +17°C° 0.1 mm 4 mps 761 mmHg 77%
    18:00 +16°C° 0.1 mm 3 mps 761 mmHg 80%
    19:00 +16°C° 0 mm 3 mps 762 mmHg 80%
    20:00 +16°C° 0 mm 3 mps 762 mmHg 81%
    21:00 +16°C° 0 mm 3 mps 762 mmHg 81%
    22:00 +16°C° 0.1 mm 2 mps 762 mmHg 81%
    23:00 +16°C° 0.1 mm 2 mps 762 mmHg 81%

    22 November, Thursday

    Time Temperature Precipitation Wind Pressure Humidity
    00:00 +15°C° 0.1 mm 2 mps 762 mmHg 81%
    01:00 +15°C° 0.1 mm 2 mps 762 mmHg 81%
    02:00 +15°C° 0.1 mm 2 mps 762 mmHg 81%
    03:00 +14°C° 0.1 mm 3 mps 762 mmHg 82%
    04:00 +15°C° 0.2 mm 2 mps 762 mmHg 81%
    05:00 +15°C° 0.2 mm 2 mps 762 mmHg 81%
    06:00 +15°C° 0.2 mm 2 mps 762 mmHg 81%
    07:00 +16°C° 0 mm 1 mps 762 mmHg 78%
    08:00 +18°C° 0 mm 1 mps 763 mmHg 74%
    09:00 +19°C° 0 mm 1 mps 763 mmHg 71%
    10:00 +19°C° 0 mm 1 mps 763 mmHg 68%
    11:00 +19°C° 0 mm 2 mps 762 mmHg 65%
    12:00 +20°C° 0 mm 3 mps 762 mmHg 63%
    13:00 +20°C° 0 mm 3 mps 762 mmHg 63%
    14:00 +20°C° 0 mm 4 mps 761 mmHg 64%
    15:00 +20°C° 0 mm 4 mps 761 mmHg 65%
    16:00 +19°C° 0.1 mm 4 mps 761 mmHg 69%
    17:00 +18°C° 0.1 mm 4 mps 761 mmHg 74%
    18:00 +18°C° 0.1 mm 4 mps 761 mmHg 79%
    19:00 +17°C° 0 mm 4 mps 761 mmHg 79%
    20:00 +17°C° 0 mm 4 mps 762 mmHg 79%
    21:00 +17°C° 0 mm 4 mps 762 mmHg 79%
    22:00 +17°C° 0 mm 4 mps 762 mmHg 78%
    23:00 +15°C° 0 mm 5 mps 761 mmHg 77%

    23 November, Friday

    Time Temperature Precipitation Wind Pressure Humidity
    00:00 +15°C° 0 mm 5 mps 761 mmHg 77%
    01:00 +15°C° 0 mm 5 mps 761 mmHg 75%
    02:00 +15°C° 0 mm 5 mps 760 mmHg 74%
    03:00 +15°C° 0 mm 5 mps 760 mmHg 73%
    04:00 +15°C° 0 mm 5 mps 760 mmHg 72%
    05:00 +15°C° 0 mm 6 mps 759 mmHg 71%
    06:00 +15°C° 0 mm 6 mps 759 mmHg 70%
    07:00 +16°C° 0 mm 6 mps 759 mmHg 67%
    08:00 +17°C° 0 mm 6 mps 759 mmHg 63%
    09:00 +19°C° 0 mm 6 mps 759 mmHg 59%
    10:00 +20°C° 0 mm 5 mps 759 mmHg 57%
    11:00 +20°C° 0 mm 5 mps 759 mmHg 55%
    12:00 +21°C° 0 mm 4 mps 759 mmHg 53%
    13:00 +21°C° 0 mm 4 mps 759 mmHg 52%
    14:00 +21°C° 0 mm 3 mps 759 mmHg 51%
    15:00 +22°C° 0 mm 3 mps 759 mmHg 50%
    16:00 +21°C° 0.1 mm 3 mps 759 mmHg 55%
    17:00 +20°C° 0.1 mm 3 mps 759 mmHg 61%
    18:00 +19°C° 0.1 mm 2 mps 760 mmHg 66%
    19:00 +18°C° 0 mm 2 mps 760 mmHg 67%
    20:00 +18°C° 0 mm 3 mps 761 mmHg 68%
    21:00 +17°C° 0 mm 3 mps 761 mmHg 69%
    22:00 +17°C° 0 mm 3 mps 761 mmHg 68%
    23:00 +17°C° 0 mm 2 mps 761 mmHg 67%

    24 November, Saturday

    Time Temperature Precipitation Wind Pressure Humidity
    00:00 +17°C° 0 mm 2 mps 761 mmHg 66%
    01:00 +17°C° 0 mm 2 mps 761 mmHg 67%
    02:00 +17°C° 0 mm 3 mps 761 mmHg 68%
    03:00 +17°C° 0 mm 3 mps 761 mmHg 69%
    04:00 +16°C° 0 mm 2 mps 761 mmHg 69%
    05:00 +16°C° 0 mm 2 mps 761 mmHg 70%
    06:00 +16°C° 0 mm 2 mps 761 mmHg 71%
    07:00 +17°C° 0 mm 2 mps 762 mmHg 67%
    08:00 +19°C° 0 mm 1 mps 762 mmHg 64%
    09:00 +20°C° 0 mm 1 mps 763 mmHg 60%
    10:00 +20°C° 0 mm 1 mps 762 mmHg 59%
    11:00 +21°C° 0 mm 1 mps 762 mmHg 58%
    12:00 +21°C° 0 mm 1 mps 762 mmHg 57%
    13:00 +21°C° 0 mm 1 mps 761 mmHg 59%
    14:00 +21°C° 0 mm 1 mps 761 mmHg 60%
    15:00 +21°C° 0 mm 1 mps 761 mmHg 62%
    16:00 +20°C° 0 mm 1 mps 761 mmHg 67%
    17:00 +20°C° 0 mm 1 mps 761 mmHg 71%
    18:00 +19°C° 0 mm 1 mps 761 mmHg 76%
    19:00 +19°C° 0 mm 1 mps 762 mmHg 77%
    20:00 +19°C° 0 mm 1 mps 762 mmHg 78%
    21:00 +18°C° 0 mm 1 mps 762 mmHg 79%
    22:00 +18°C° 0.1 mm 1 mps 762 mmHg 80%
    23:00 +18°C° 0.1 mm 1 mps 762 mmHg 81%
    Show more